EHI
0 0 0 0 0 0 1 2 2 1 0 0 0 0 0 0 0 0 0 0 0 0 0 0 0 0 0 0 0 0 0 0 0 0 0 0 0 0 0 0 0 0 0
0 0 0 0 0 0 1 2 3 2 1 0 0 0 0 0 0 0 0 0 0 0 0 0 0 0 0 0 0 0 0 0 0 0 0 0 0 0 0 0 0 0 0
0 0 0 0 0 1 2 3 3 2 1 0 0 0 0 0 0 0 0 0 0 0 0 0 0 0 0 0 0 0 0 0 0 0 0 0 0 0 0 0 0 0 0
0 0 0 1 1 1 2 3 3 1 0 0 0 0 0 0 0 0 0 0 0 0 0 0 0 0 0 0 0 0 0 0 0 0 0 0 0 0 0 0 0 0 0
0 0 0 0 0 0 1 2 2 1 1 1 1 1 1 1 0 0 0 0 0 0 0 0 0 0 0 0 0 0 0 0 0 0 0 0 0 0 0 0 0 0 0
0 0 0 0 1 1 1 1 1 1 2 2 2 2 2 1 0 0 0 0 0 0 0 0 0 0 0 0 0 0 0 0 0 0 0 0 0 0 0 0 0 0 0
0 1 1 1 1 2 2 1 0 1 1 1 1 1 1 1 0 0 0 0 0 0 0 0 0 0 0 0 0 0 0 0 0 0 0 0 0 0 0 0 0 0 0
0 1 1 1 1 2 2 1 0 0 0 0 0 0 0 0 0 0 0 0 0 0 0 0 0 0 0 0 0 0 0 0 0 0 0 0 0 0 0 0 0 0 0
0 0 0 0 0 1 2 2 1 0 0 0 0 0 0 0 0 0 0 0 0 0 0 0 0 0 0 0 0 0 0 0 0 0 0 0 0 0 0 0 0 0 0
1 0 0 0 0 0 1 1 1 0 0 0 0 0 0 0 0 0 0 0 0 0 0 0 0 0 0 0 0 0 0 0 0 0 0 0 0 0 0 0 0 0 0
2 1 0 0 0 0 0 0 0 0 0 0 0 0 1 0 0 0 0 0 0 0 0 0 0 0 0 0 0 0 0 0 0 0 0 0 0 0 0 0 0 0 0
3 2 1 0 0 0 0 0 0 0 0 0 0 0 0 0 0 0 0 0 0 0 0 0 0 0 0 0 0 0 0 0 0 0 0 0 0 0 0 0 0 0 0
5 4 2 1 0 0 0 0 0 0 0 0 0 0 0 0 0 0 0 0 1 0 0 0 0 0 0 0 0 0 0 0 0 0 1 1 1 0 0 0 0 0 0
7 6 4 3 1 0 0 0 0 0 0 0 0 0 0 0 0 0 0 0 0 0 0 0 0 0 0 0 0 0 0 0 0 0 1 2 1 0 0 0 0 0 0
8 7 6 4 2 1 1 1 1 0 0 0 0 0 0 0 0 0 0 0 0 0 0 0 0 0 0 0 0 0 0 0 0 0 1 1 1 0 0 0 0 0 0
10 8 7 6 4 2 2 2 1 0 0 1 1 0 0 0 0 0 0 0 0 0 0 0 0 0 0 0 0 0 0 0 0 0 0 0 0 1 1 0 0 0 0
13 11 9 7 6 4 3 2 1 0 0 1 2 1 0 0 0 0 0 0 0 0 0 0 0 0 0 0 0 0 0 0 0 0 0 0 0 2 3 2 0 0 0
16 15 12 9 8 8 7 5 2 1 0 1 2 1 1 1 0 0 0 0 0 0 0 0 0 0 0 0 0 0 0 0 0 0 0 0 0 2 3 3 2 0 0
18 18 16 14 13 14 13 11 7 4 1 1 2 2 2 2 1 1 0 0 0 0 0 0 0 0 0 0 0 0 0 0 0 0 0 0 0 1 2 3 3 1 0
21 23 23 21 19 19 18 17 12 8 4 2 2 2 2 2 3 3 1 0 0 0 0 0 0 0 0 0 0 0 0 0 0 0 0 0 0 0 1 1 2 2 1
29 32 32 28 24 21 21 20 16 10 6 4 3 2 2 3 4 4 3 2 1 1 0 0 0 0 0 0 0 0 0 0 0 0 0 0 0 0 0 0 1 2 3
42 42 40 34 29 24 22 21 16 9 5 3 3 3 4 6 7 6 4 3 3 3 1 0 1 0 0 0 0 0 0 0 0 0 0 0 0 0 0 0 1 2 3
51 48 44 41 37 30 26 23 19 11 5 2 2 5 7 9 9 8 5 3 3 3 2 2 3 2 0 0 0 1 1 0 0 0 0 0 0 0 0 0 0 1 2
53 48 45 45 44 39 33 29 26 19 10 4 3 5 7 8 9 9 7 5 4 3 3 3 4 4 2 1 1 1 1 1 1 1 0 0 0 0 0 0 0 0 1
51 46 44 47 50 47 40 36 35 28 17 10 6 6 7 7 7 7 7 8 6 4 3 4 6 8 6 4 1 1 2 2 3 2 1 0 0 0 0 1 1 0 0
48 44 43 49 53 50 43 40 39 34 24 14 10 9 10 8 6 4 6 9 8 5 4 5 8 11 9 5 2 1 2 2 4 3 1 0 0 0 1 3 2 1 0
Wind_Speed
9 12 12 11 12 12 13 13 14 14 14 14 14 14 15 15 14 15 15 15 15 15 16 16 15 15 16 16 17 17 17 17 17 17 17 17 17 16 15 14 14 15 16
12 14 12 12 12 13 13 13 14 14 14 14 14 14 14 14 14 15 14 15 15 16 16 16 15 16 16 16 16 16 16 16 16 16 17 16 16 14 13 12 13 13 15
13 14 13 12 12 13 13 13 14 14 14 14 14 14 14 14 14 15 15 15 15 15 15 15 16 16 16 16 15 16 16 15 14 13 12 13 14 14 14 15 16 15 15
13 13 13 13 12 13 13 13 13 13 14 14 14 14 14 14 14 15 15 14 15 15 15 15 15 15 15 15 15 15 15 14 11 8 8 12 13 14 14 15 15 15 14
13 13 15 13 12 13 13 13 13 13 13 14 14 13 14 14 14 14 14 14 14 14 15 15 15 15 14 15 14 14 14 11 7 6 11 11 12 13 13 14 14 14 14
13 13 15 12 13 13 13 13 13 13 13 13 13 13 13 14 14 14 13 13 14 14 14 14 14 14 14 14 13 13 12 8 7 10 10 10 11 12 12 13 13 13 13
13 14 15 12 13 12 12 12 12 13 13 13 13 13 13 13 13 13 13 13 13 13 13 13 13 13 13 13 12 11 9 3 7 9 9 10 11 11 12 12 12 12 12
13 13 15 13 12 12 12 12 12 12 12 12 13 13 12 12 12 12 12 12 13 13 12 12 12 12 12 12 11 10 7 2 8 9 9 10 11 10 11 11 11 11 11
12 12 13 13 12 12 12 12 12 12 12 12 12 12 12 12 12 12 11 12 12 12 11 11 12 11 11 11 11 9 6 1 5 7 8 9 10 10 11 10 10 10 11
11 11 11 11 11 11 12 11 11 11 11 11 11 11 12 12 12 11 11 11 11 11 10 11 11 11 10 10 9 8 5 4 6 7 6 9 10 9 10 10 9 9 9
10 9 10 10 9 9 10 12 11 11 11 11 10 10 9 8 10 9 12 11 10 10 9 10 10 9 9 10 9 7 6 3 6 5 6 11 9 8 9 9 8 8 8
12 11 9 10 9 8 7 8 7 8 8 6 7 7 5 5 5 8 11 9 9 9 9 9 8 8 6 7 8 8 3 4 5 5 7 9 8 8 8 8 7 7 7
12 11 10 9 8 8 6 6 4 4 5 6 7 6 5 5 5 6 6 7 7 8 7 8 7 4 4 3 2 3 3 2 3 4 8 8 7 7 7 7 7 7 7
12 12 10 10 8 6 5 5 5 5 4 5 6 5 5 3 3 4 3 4 4 3 3 3 2 3 3 3 2 2 3 1 2 3 7 8 7 7 7 7 7 6 6
12 12 11 10 9 7 5 4 5 4 5 5 5 4 4 4 4 4 3 2 3 3 4 3 3 3 3 3 2 2 1 2 2 2 5 8 7 7 7 7 7 6 6
13 12 11 11 10 8 6 5 4 4 4 4 5 5 4 3 3 3 4 3 2 2 2 2 3 3 2 2 2 2 1 1 2 2 4 8 9 7 7 7 7 7 7
13 12 12 11 10 9 8 7 5 5 5 4 4 5 5 4 4 3 3 3 3 3 3 3 3 2 3 3 3 3 2 2 2 2 2 3 7 10 9 8 8 8 8
12 12 12 10 11 10 8 6 5 5 5 4 4 5 6 4 5 4 3 3 3 3 3 3 3 3 2 2 2 2 2 3 3 3 4 4 3 5 10 11 10 9 10
12 12 12 11 11 11 9 7 6 5 4 4 4 4 5 6 5 5 3 3 4 3 3 3 3 2 2 2 3 3 3 3 3 4 4 5 5 5 5 10 11 10 11
13 12 12 12 11 10 9 7 6 6 5 5 5 5 6 6 6 5 4 4 5 4 4 3 2 3 3 3 4 2 4 4 4 4 5 5 5 6 7 6 8 10 13
13 13 13 12 12 10 8 8 7 7 7 6 6 7 7 7 7 6 5 5 5 5 4 5 4 5 4 3 4 4 4 6 5 4 5 5 6 6 6 6 6 5 7
14 14 14 13 12 12 9 7 6 5 6 6 6 7 8 8 7 7 7 6 6 5 6 6 5 5 4 4 4 4 4 5 6 6 5 6 6 6 6 8 7 6 7
16 16 13 14 14 13 11 8 6 5 5 6 7 7 8 9 9 8 7 7 6 7 6 6 6 7 5 5 5 4 4 3 2 4 6 5 5 5 6 5 7 7 8
16 15 14 14 13 13 12 10 11 9 8 8 7 6 7 9 9 9 9 9 8 7 6 7 7 6 6 5 4 5 6 5 5 3 5 6 6 6 6 6 7 8 8
15 14 13 13 13 13 12 12 11 10 9 7 7 7 7 8 9 10 10 9 8 7 8 7 5 7 6 6 6 5 5 5 7 6 5 4 5 6 6 7 6 6 6
14 13 13 14 14 14 14 13 13 12 10 9 9 7 7 6 7 10 10 9 9 8 8 8 7 8 7 7 6 5 5 5 6 6 6 6 5 5 5 4 5 5 6
Wind_Direction
124 114 114 116 112 110 113 112 112 113 112 111 110 109 108 107 105 104 104 103 103 102 101 100 101 101 101 102 103 104 103 103 103 103 102 102 103 103 106 112 112 102 102
125 116 119 119 116 113 114 114 114 115 114 113 112 110 109 108 107 106 106 105 104 103 102 101 100 100 102 103 104 105 105 105 106 107 110 106 102 101 97 89 85 99 105
124 121 127 122 120 117 116 114 114 115 115 115 113 111 110 109 108 107 106 105 105 104 104 103 101 101 103 103 104 105 105 106 108 118 128 112 105 100 97 95 98 105 105
127 128 121 121 121 118 117 115 115 114 114 114 114 113 112 110 109 107 106 105 105 106 105 103 102 102 103 104 104 105 105 106 114 143 116 104 106 103 104 104 105 106 106
128 123 117 127 123 121 119 116 116 116 116 115 114 113 113 110 109 108 107 107 106 106 105 105 103 103 105 105 106 106 106 110 130 120 96 101 103 107 108 108 107 107 107
133 127 121 130 125 123 120 118 117 117 115 114 114 114 114 113 112 110 109 108 107 108 108 107 106 106 107 107 107 107 112 130 154 100 105 106 105 109 109 110 109 109 108
133 127 127 129 126 125 122 121 119 117 116 116 116 116 115 114 113 111 110 109 109 109 108 107 108 110 109 108 108 109 112 132 101 100 101 98 100 110 111 110 111 111 110
134 130 126 130 128 127 125 122 119 117 116 115 116 116 116 114 112 111 112 111 111 110 108 108 111 112 112 111 110 111 120 175 112 105 103 101 104 112 113 114 113 114 114
137 133 137 141 138 133 127 125 121 118 116 115 115 116 116 116 114 113 113 114 113 112 112 112 114 116 116 116 115 114 111 321 110 108 107 103 112 116 117 117 116 116 116
142 141 143 141 142 145 139 130 125 123 120 118 117 119 120 121 121 125 125 116 116 115 114 114 115 117 119 121 119 121 141 214 110 114 106 108 121 124 123 122 121 121 119
150 149 149 143 148 148 140 135 140 134 129 135 130 131 152 145 134 143 109 119 121 119 116 115 115 122 133 131 128 144 188 128 107 97 95 109 128 129 129 128 129 128 127
160 160 158 150 154 151 140 144 153 148 142 151 133 145 143 115 117 112 114 122 124 125 123 120 127 152 178 141 144 182 157 119 118 112 105 124 136 137 136 135 134 139 139
165 165 160 155 162 155 148 154 148 140 140 143 138 142 131 139 137 134 138 142 143 154 144 140 167 162 131 108 138 138 106 118 108 114 120 141 152 151 147 148 150 151 150
171 170 164 161 164 166 156 150 158 154 153 148 144 163 147 147 142 133 143 140 151 147 136 151 145 127 122 128 123 114 136 142 110 104 123 151 164 164 163 164 167 167 166
176 174 169 170 167 168 163 174 166 158 155 144 150 155 158 157 154 143 139 147 160 142 159 163 151 141 153 155 156 144 134 110 115 149 131 155 173 179 178 179 181 182 182
181 179 174 178 172 174 175 178 170 166 160 161 161 155 174 165 150 155 161 165 161 170 151 159 158 172 186 161 173 161 190 154 141 177 159 159 179 189 193 195 197 198 198
183 179 178 181 178 181 184 184 181 177 177 174 160 162 180 180 162 180 174 176 169 165 161 191 177 194 200 192 188 188 194 205 186 192 202 183 175 188 199 206 210 212 212
184 180 183 185 181 184 188 191 191 191 183 184 179 171 183 189 184 200 194 183 169 192 192 184 209 203 206 218 207 216 203 197 213 204 207 211 213 194 189 201 214 220 222
186 182 184 190 185 187 187 191 200 192 198 199 191 189 184 196 196 208 209 174 198 204 209 219 197 221 220 231 224 215 231 220 219 222 224 223 218 228 211 181 203 218 224
187 185 187 191 191 189 189 192 200 199 201 210 204 199 198 201 205 213 208 198 216 209 211 222 228 238 249 244 256 243 243 236 232 227 233 228 219 222 227 210 201 206 216
187 187 190 195 191 192 192 195 195 198 202 204 208 206 209 213 209 216 226 199 220 220 224 223 228 222 233 238 254 253 241 235 235 232 235 241 228 225 228 224 233 229 202
189 190 190 194 194 198 197 200 201 206 210 209 211 204 214 215 218 216 223 223 217 222 223 229 234 249 242 229 251 262 253 225 217 221 225 229 235 228 227 223 227 233 250
193 194 194 195 195 201 198 197 195 201 217 209 211 209 212 215 218 227 223 232 227 228 223 226 228 238 247 240 237 253 269 267 255 202 216 225 229 236 237 233 229 228 234
196 195 198 195 198 198 198 203 202 209 216 218 216 212 211 216 220 219 225 228 230 232 227 230 228 236 245 252 239 241 260 291 284 263 218 211 217 229 241 244 239 230 231
194 194 194 194 197 198 203 207 210 218 223 222 220 217 219 217 222 222 222 225 226 233 233 236 228 233 236 247 252 243 242 245 251 264 273 257 231 226 225 233 243 246 237
191 192 192 193 197 199 204 209 213 219 223 225 222 222 217 218 221 222 225 224 226 229 228 228 227 228 240 248 256 252 246 249 250 255 264 264 259 247 236 237 241 242 242